VE3KSR Weather Reports


Display with metric or nautical units.
time (UTC)temp
F
wind
direction
speed
MPH
gust
MPH
rain 1hr
in
rain 24hr
in
rain mn
in
humidity
%
barometer
mb
20160501060350 38 159 3.0 11.0 1.24 0.00 0.00 84 1022.1
20160501055850 38 0 0.0 0.0 1.24 0.00 0.00 86 1021.9
20160501055350 38 0 0.0 0.0 1.24 0.00 0.00 85 1021.9
20160501054850 39 0 0.0 0.0 1.24 0.00 0.00 84 1022.0
20160501054350 39 0 0.0 0.0 1.24 0.00 0.00 82 1022.1
20160501053850 39 162 3.0 11.0 1.24 0.00 0.00 82 1022.4
20160501053350 39 0 0.0 0.0 1.24 0.00 0.00 83 1022.7
20160501052852 39 0 0.0 0.0 1.24 0.00 0.00 81 1023.0
20160501052350 39 0 0.0 0.0 1.24 0.00 0.00 81 1023.3
20160501051850 40 0 0.0 0.0 1.24 0.00 0.00 82 1023.6
20160501051351 40 0 0.0 0.0 1.24 0.00 0.00 82 1023.7
20160501051102 40 0 0.0 0.0 1.24 0.00 0.00 81 1023.8
20160501050850 40 0 0.0 0.0 1.24 0.00 0.00 81 1023.8
20160501050350 40 0 0.0 0.0 1.24 0.00 0.00 81 1023.7
20160501045850 40 0 0.0 0.0 1.24 0.00 0.00 81 1023.8
20160501045625 40 0 0.0 0.0 1.24 0.00 0.00 81 1023.8
20160501045350 40 0 0.0 0.0 1.24 0.00 0.00 81 1023.8
20160501044850 40 0 0.0 0.0 1.24 0.00 0.00 80 1023.7
20160501044350 40 0 0.0 0.0 1.24 0.00 0.00 81 1023.8
20160501043851 40 0 0.0 0.0 1.24 0.00 0.00 81 1023.7
20160501043350 40 0 0.0 0.0 1.24 0.00 0.00 80 1023.6
20160501042850 40 0 0.0 0.0 1.24 0.00 0.00 81 1023.6
20160501042350 40 0 0.0 0.0 1.24 0.00 0.00 80 1023.4
20160501041850 41 0 0.0 0.0 1.24 0.00 0.00 74 1023.6
20160501041556 41 0 0.0 0.0 1.24 0.00 0.00 73 1023.6
20160501041350 41 0 0.0 0.0 1.24 0.00 0.00 73 1023.6
20160501040850 41 0 0.0 0.0 1.24 0.00 0.00 71 1023.6
20160501040350 41 0 0.0 0.0 1.24 0.00 0.00 72 1023.6
20160501035850 41 0 0.0 0.0 1.24 0.00 0.00 72 1023.7
20160501035351 41 0 0.0 0.0 1.24 0.00 0.00 72 1023.7
20160501034850 41 0 0.0 0.0 1.24 0.00 0.00 72 1023.7
20160501034350 41 0 0.0 0.0 1.24 0.00 0.00 72 1023.8
20160501033850 41 0 0.0 0.0 1.24 0.00 0.00 72 1023.8
20160501033350 41 0 0.0 0.0 1.24 0.00 0.00 72 1023.9
20160501032850 41 0 0.0 0.0 1.24 0.00 0.00 71 1024.0
20160501032351 41 0 0.0 0.0 1.24 0.00 0.00 71 1023.9
20160501031850 41 0 0.0 0.0 1.24 0.00 0.00 70 1023.9
20160501031351 41 0 0.0 0.0 1.24 0.00 0.00 70 1023.9
20160501030850 41 0 0.0 0.0 1.24 0.00 0.00 69 1024.0
20160501030350 42 0 0.0 0.0 1.24 0.00 0.00 67 1024.2
20160501025851 42 162 2.0 17.0 1.24 0.00 0.00 66 1024.2
20160501025351 42 0 0.0 0.0 1.24 0.00 0.00 66 1024.2
20160501024850 42 359 4.0 14.0 1.24 0.00 0.00 66 1024.3
20160501024351 42 359 3.0 16.0 1.24 0.00 0.00 64 1024.3
20160501023850 42 0 0.0 0.0 1.24 0.00 0.00 63 1024.4
20160501023350 42 359 2.0 11.0 1.24 0.00 0.00 63 1024.4
20160501022850 42 0 0.0 0.0 1.24 0.00 0.00 64 1024.4
20160501022351 42 359 1.0 9.0 1.24 0.00 0.00 63 1024.4
20160501021852 42 0 0.0 0.0 1.24 0.00 0.00 64 1024.4
20160501021352 42 0 0.0 0.0 1.24 0.00 0.00 63 1024.3
20160501020853 42 359 1.0 5.0 1.24 0.00 0.00 63 1024.4
20160501020350 42 0 0.0 0.0 1.24 0.00 0.00 63 1024.3
20160501015850 42 0 0.0 0.0 1.24 0.00 0.00 63 1024.4
20160501015352 42 0 0.0 0.0 1.24 0.00 0.00 63 1024.4
20160501014850 42 0 0.0 0.0 1.24 0.00 0.00 63 1024.5
20160501014704 42 0 0.0 0.0 1.24 0.00 0.00 62 1024.7
20160501014355 42 0 0.0 0.0 1.24 0.00 0.00 62 1024.7
20160501013850 42 0 0.0 0.0 1.24 0.00 0.00 62 1024.7
20160501013716 42 359 1.0 5.0 1.24 0.00 0.00 62 1024.7
20160501013350 42 359 1.0 5.0 1.24 0.00 0.00 62 1024.7
20160501012850 42 359 0.0 3.0 1.24 0.00 0.00 62 1024.7
20160501012443 42 0 0.0 0.0 1.24 0.00 0.00 62 1024.8
20160501012350 42 0 0.0 0.0 1.24 0.00 0.00 62 1024.8
20160501012109 43 0 0.0 0.0 1.24 0.00 0.00 62 1024.7
20160501011851 43 0 0.0 0.0 1.24 0.00 0.00 62 1024.7
20160501011519 43 359 0.0 2.0 1.24 0.00 0.00 63 1024.6
20160501011350 43 359 0.0 2.0 1.24 0.00 0.00 63 1024.6
20160501011108 43 359 1.0 3.0 1.24 0.00 0.00 63 1024.7
20160501010851 43 359 1.0 3.0 1.24 0.00 0.00 63 1024.7
20160501010509 43 0 0.0 0.0 1.24 0.00 0.00 64 1024.7
20160501010350 43 0 0.0 0.0 1.24 0.00 0.00 64 1024.7
20160501010054 43 0 0.0 0.0 1.24 0.00 0.00 64 1024.8
20160501005851 43 0 0.0 0.0 1.24 0.00 0.00 64 1024.8
20160501005522 43 221 5.0 13.0 1.24 0.00 0.00 63 1024.6
20160501005351 43 221 5.0 13.0 1.24 0.00 0.00 63 1024.6
20160501004853 43 0 0.0 0.0 1.24 0.00 0.00 63 1024.7
20160501004352 43 0 0.0 0.0 1.24 0.00 0.00 63 1024.7
20160501003850 43 0 0.0 0.0 1.24 0.00 0.00 63 1024.7
20160501003351 43 0 0.0 0.0 1.24 0.00 0.00 62 1024.6
20160501003045 43 359 2.0 17.0 1.24 0.00 0.00 61 1024.6
20160501002851 43 359 2.0 17.0 1.24 0.00 0.00 61 1024.6
20160501002715 43 0 0.0 0.0 1.24 0.00 0.00 62 1024.7
20160501002352 43 0 0.0 0.0 1.24 0.00 0.00 62 1024.7
20160501001851 44 0 0.0 0.0 1.24 0.00 0.00 62 1024.6
20160501001351 44 0 0.0 0.0 1.24 0.00 0.00 61 1024.6
20160501000851 44 0 0.0 0.0 1.24 0.00 0.00 61 1024.5
20160501000653 44 359 0.0 1.0 1.24 0.00 0.00 61 1024.5
20160501000350 44 359 0.0 1.0 1.24 0.00 0.00 61 1024.5
20160501000110 44 148 1.0 9.0 1.24 0.00 0.00 62 1024.6
20160430235851 44 148 1.0 9.0 1.24 0.00 0.00 62 1024.6
20160430235351 44 359 2.0 12.0 1.24 0.00 0.00 61 1024.6
20160430234851 44 359 5.0 12.0 1.24 0.00 0.00 61 1024.6
20160430234351 44 193 5.0 16.0 1.24 0.00 0.00 60 1024.7
20160430233851 44 0 0.0 0.0 1.24 0.00 0.00 60 1024.7
20160430233705 45 0 0.0 0.0 1.24 0.00 0.00 60 1024.7
20160430233351 45 0 0.0 0.0 1.24 0.00 0.00 60 1024.7
20160430233026 45 359 1.0 4.0 1.24 0.00 0.00 59 1024.7
20160430232851 45 359 1.0 4.0 1.24 0.00 0.00 59 1024.7
20160430232352 45 138 12.0 16.0 1.24 0.00 0.00 59 1024.7
20160430231851 45 0 0.0 0.0 1.24 0.00 0.00 59 1024.7
20160430231351 45 359 1.0 3.0 1.24 0.00 0.00 58 1024.6
20160430230851 45 359 1.0 5.0 1.24 0.00 0.00 59 1024.6
20160430230351 45 359 0.0 3.0 1.24 0.00 0.00 58 1024.6
20160430225851 45 359 0.0 3.0 1.24 0.00 0.00 59 1024.6
20160430225352 46 0 0.0 0.0 1.24 0.00 0.00 58 1024.6
20160430224851 46 0 0.0 0.0 1.24 0.00 0.00 59 1024.7
20160430224351 46 0 0.0 0.0 1.24 0.00 0.00 58 1024.8
20160430223851 46 359 0.0 2.0 1.24 0.00 0.00 58 1024.7
20160430223351 46 359 0.0 2.0 1.24 0.00 0.00 60 1024.6
20160430222851 46 0 0.0 0.0 1.24 0.00 0.00 61 1024.6
20160430222622 46 359 5.0 18.0 1.24 0.00 0.00 61 1024.6
20160430222351 46 359 5.0 18.0 1.24 0.00 0.00 61 1024.6
20160430221851 47 359 0.0 1.0 1.24 0.00 0.00 62 1024.6
20160430221351 47 0 0.0 0.0 1.24 0.00 0.00 62 1024.7
20160430220851 47 0 0.0 0.0 1.24 0.00 0.00 62 1024.6
20160430220351 47 359 0.0 3.0 1.24 0.00 0.00 62 1024.8
20160430215950 47 0 0.0 0.0 1.24 0.00 0.00 62 1024.8
20160430215851 47 0 0.0 0.0 1.24 0.00 0.00 62 1024.8
20160430215351 47 359 0.0 3.0 1.24 0.00 0.00 62 1024.6
20160430214952 47 359 0.0 2.0 1.24 0.00 0.00 63 1024.9
20160430214851 47 359 0.0 2.0 1.24 0.00 0.00 63 1024.9
20160430214351 47 359 0.0 1.0 1.24 0.00 0.00 64 1025.0
20160430213851 48 0 0.0 0.0 1.24 0.00 0.00 65 1024.9
20160430213351 47 359 3.0 14.0 1.24 0.00 0.00 66 1025.0
20160430212851 47 359 3.0 13.0 1.24 0.00 0.00 66 1025.0
20160430212451 47 359 1.0 5.0 1.24 0.00 0.00 66 1025.1
20160430212352 47 359 1.0 5.0 1.24 0.00 0.00 66 1025.1
20160430212036 47 359 0.0 2.0 1.24 0.00 0.00 66 1025.2
20160430211851 47 359 0.0 2.0 1.24 0.00 0.00 66 1025.2
20160430211445 48 359 1.0 2.0 1.24 0.00 0.00 66 1025.2
20160430211351 48 359 1.0 2.0 1.24 0.00 0.00 66 1025.2
20160430210853 48 0 0.0 0.0 1.24 0.00 0.00 65 1025.2
20160430210353 48 359 2.0 12.0 1.24 0.00 0.00 64 1025.2
20160430205852 48 188 12.0 17.0 1.24 0.00 0.00 65 1025.0
20160430205629 48 359 6.0 17.0 1.24 0.00 0.00 64 1025.1
20160430205351 48 359 6.0 17.0 1.24 0.00 0.00 64 1025.1
20160430204851 48 0 0.0 0.0 1.24 0.00 0.00 65 1025.3
20160430204351 48 359 0.0 3.0 1.24 0.00 0.00 64 1025.2
20160430203853 48 359 0.0 5.0 1.24 0.00 0.00 64 1025.3
20160430203540 48 0 0.0 0.0 1.24 0.00 0.00 63 1025.3
20160430203351 48 0 0.0 0.0 1.24 0.00 0.00 63 1025.3
20160430202854 48 0 0.0 0.0 1.24 0.00 0.00 64 1025.4
20160430202351 48 0 0.0 0.0 1.24 0.00 0.00 64 1025.5
20160430201851 48 0 0.0 0.0 1.24 0.00 0.00 63 1025.4
20160430201353 48 359 0.0 3.0 1.24 0.00 0.00 63 1025.4
20160430201007 48 359 1.0 4.0 1.24 0.00 0.00 62 1025.6
20160430200854 48 359 1.0 4.0 1.24 0.00 0.00 62 1025.6
20160430200458 48 359 4.0 18.0 1.24 0.00 0.00 62 1025.7
20160430200351 48 359 4.0 18.0 1.24 0.00 0.00 62 1025.7
20160430200028 48 359 1.0 6.0 1.24 0.00 0.00 63 1025.6
20160430195851 48 359 1.0 6.0 1.24 0.00 0.00 63 1025.6
20160430195607 48 359 1.0 12.0 1.24 0.00 0.00 64 1025.8
20160430195351 48 359 1.0 12.0 1.24 0.00 0.00 64 1025.8
20160430194949 48 359 0.0 3.0 1.24 0.00 0.00 63 1025.9
20160430194852 48 359 0.0 3.0 1.24 0.00 0.00 63 1025.9
20160430194438 48 0 0.0 0.0 1.24 0.00 0.00 63 1025.9
20160430194351 48 0 0.0 0.0 1.24 0.00 0.00 63 1025.9
20160430194133 48 359 0.0 2.0 1.24 0.00 0.00 64 1026.0
20160430193852 48 359 0.0 2.0 1.24 0.00 0.00 64 1026.0
20160430192615 48 359 5.0 15.0 1.24 0.00 0.00 62 1026.2
20160430192500 48 359 5.0 15.0 1.24 0.00 0.00 62 1026.2
20160430192352 48 359 5.0 15.0 1.24 0.00 0.00 62 1026.2
20160430191851 48 177 5.0 16.0 1.24 0.00 0.00 62 1026.4
20160430191557 48 105 4.0 15.0 1.24 0.00 0.00 62 1026.5
20160430191353 48 105 4.0 15.0 1.24 0.00 0.00 62 1026.5
20160430190851 48 169 2.0 14.0 1.24 0.00 0.00 63 1026.7
20160430190506 47 359 2.0 15.0 1.24 0.00 0.00 63 1026.6
20160430190351 47 359 2.0 15.0 1.24 0.00 0.00 63 1026.6
20160430190025 47 359 1.0 6.0 1.24 0.00 0.00 63 1026.5
20160430185851 47 359 1.0 6.0 1.24 0.00 0.00 63 1026.5
20160430185351 47 359 1.0 4.0 1.24 0.00 0.00 63 1026.6
20160430185057 48 359 3.0 16.0 1.24 0.00 0.00 62 1026.6
20160430184852 48 359 3.0 16.0 1.24 0.00 0.00 62 1026.6
20160430184351 48 0 0.0 0.0 1.24 0.00 0.00 65 1026.4
20160430184058 47 359 2.0 15.0 1.24 0.00 0.00 63 1026.5
20160430183852 47 359 2.0 15.0 1.24 0.00 0.00 63 1026.5
20160430183351 48 359 3.0 16.0 1.24 0.00 0.00 56 1026.7
20160430182925 47 208 4.0 20.0 1.24 0.00 0.00 63 1026.7
20160430182851 47 208 4.0 20.0 1.24 0.00 0.00 63 1026.7
20160430182351 47 229 10.0 17.0 1.24 0.00 0.00 65 1026.7
20160430182036 47 359 1.0 19.0 1.24 0.00 0.00 65 1026.9
20160430181851 47 359 1.0 19.0 1.24 0.00 0.00 65 1026.9
20160430181353 47 0 0.0 0.0 1.24 0.00 0.00 64 1026.9
20160430180852 47 359 1.0 5.0 1.24 0.00 0.00 65 1026.9
20160430180351 47 359 0.0 2.0 1.24 0.00 0.00 66 1027.1
20160430175958 47 359 2.0 9.0 1.24 0.00 0.00 67 1027.2
20160430175852 47 359 2.0 9.0 1.24 0.00 0.00 67 1027.2
20160430175459 48 359 8.0 19.0 1.24 0.00 0.00 67 1027.1
20160430175353 48 359 8.0 19.0 1.24 0.00 0.00 67 1027.1
20160430175006 48 359 2.0 10.0 1.24 0.00 0.00 67 1027.1
20160430174852 48 359 2.0 10.0 1.24 0.00 0.00 67 1027.1
20160430174351 47 359 1.0 7.0 1.24 0.00 0.00 67 1027.2
20160430173852 47 359 1.0 7.0 1.24 0.00 0.00 68 1027.1
20160430173352 47 359 3.0 23.0 1.24 0.00 0.00 68 1027.1
20160430173003 47 359 4.0 20.0 1.24 0.00 0.00 68 1027.2
20160430172852 47 359 4.0 20.0 1.24 0.00 0.00 68 1027.2
20160430172436 47 359 0.0 3.0 1.24 0.00 0.00 70 1027.1
20160430172352 47 359 0.0 3.0 1.24 0.00 0.00 70 1027.1
20160430171852 47 0 0.0 0.0 1.24 0.00 0.00 68 1027.1
20160430171353 47 359 4.0 24.0 1.24 0.00 0.00 69 1027.2
20160430170956 47 359 1.0 12.0 1.24 0.00 0.00 72 1027.1
20160430170853 47 359 1.0 12.0 1.24 0.00 0.00 72 1027.1
20160430170539 47 0 0.0 0.0 1.24 0.00 0.00 68 1027.4
20160430170353 47 0 0.0 0.0 1.24 0.00 0.00 68 1027.4
20160430170019 47 359 1.0 6.0 1.24 0.00 0.00 69 1027.2
20160430165852 47 359 1.0 6.0 1.24 0.00 0.00 69 1027.2
20160430165507 47 359 15.0 21.0 1.24 0.00 0.00 67 1027.4
20160430165352 47 359 15.0 21.0 1.24 0.00 0.00 67 1027.4
20160430165054 48 187 13.0 19.0 1.24 0.00 0.00 68 1027.3
20160430164852 48 187 13.0 19.0 1.24 0.00 0.00 68 1027.3
20160430164352 47 359 1.0 4.0 1.24 0.00 0.00 69 1027.3
20160430163943 47 359 2.0 17.0 1.24 0.00 0.00 69 1027.3
20160430163852 47 359 2.0 17.0 1.24 0.00 0.00 69 1027.3
20160430163352 46 359 17.0 22.0 1.24 0.00 0.00 69 1027.4
20160430162852 46 359 3.0 15.0 1.24 0.00 0.00 69 1027.4
20160430162507 46 359 9.0 23.0 1.24 0.00 0.00 70 1027.3
20160430162353 46 359 9.0 23.0 1.24 0.00 0.00 70 1027.3
20160430162019 46 0 0.0 0.0 1.24 0.00 0.00 68 1027.4
20160430161852 46 0 0.0 0.0 1.24 0.00 0.00 68 1027.4
20160430161353 46 359 1.0 11.0 1.24 0.00 0.00 70 1027.2
20160430160852 46 359 1.0 4.0 1.24 0.00 0.00 67 1027.1
20160430160352 46 359 2.0 9.0 1.24 0.00 0.00 70 1027.2
20160430155853 46 0 0.0 0.0 1.24 0.00 0.00 72 1027.4
20160430155352 45 142 18.0 21.0 1.24 0.00 0.00 70 1027.3
20160430154852 45 141 17.0 23.0 1.24 0.00 0.00 70 1027.5
20160430154352 46 122 15.0 20.0 1.24 0.00 0.00 71 1027.6
20160430153852 45 172 10.0 15.0 1.24 0.00 0.00 69 1027.9
20160430153354 45 180 16.0 19.0 1.24 0.00 0.00 73 1027.7
20160430152852 46 179 13.0 20.0 1.24 0.00 0.00 72 1027.6
20160430152352 45 146 15.0 20.0 1.24 0.00 0.00 73 1027.6
20160430151852 45 359 2.0 18.0 1.24 0.00 0.00 73 1027.7
20160430151354 45 359 3.0 9.0 1.24 0.00 0.00 71 1027.8
20160430150852 45 172 7.0 16.0 1.24 0.00 0.00 72 1027.7
20160430150353 44 160 12.0 16.0 1.24 0.00 0.00 75 1027.8
20160430145858 44 194 16.0 19.0 1.24 0.00 0.00 74 1027.8
20160430145354 44 239 14.0 21.0 1.24 0.00 0.00 74 1027.6
20160430144852 44 150 15.0 22.0 1.24 0.00 0.00 73 1027.7
20160430144352 44 191 12.0 17.0 1.24 0.00 0.00 75 1027.7
20160430143852 44 162 13.0 17.0 1.24 0.00 0.00 73 1027.9
20160430143353 43 172 14.0 18.0 1.24 0.00 0.00 74 1027.9
20160430142852 43 183 6.0 18.0 1.24 0.00 0.00 72 1028.0
20160430142354 43 359 8.0 17.0 1.24 0.00 0.00 73 1028.0
20160430142352 43 359 4.0 15.0 1.24 0.00 0.00 72 1028.1
20160430141852 43 359 8.0 17.0 1.24 0.00 0.00 73 1028.0
20160430141352 44 250 13.0 18.0 1.24 0.00 0.00 72 1028.2
20160430140852 45 257 10.0 17.0 1.24 0.00 0.00 71 1028.1
20160430140354 45 359 9.0 14.0 1.24 0.00 0.00 72 1027.9
20160430135853 44 228 11.0 16.0 1.24 0.00 0.00 71 1027.6
20160430135352 44 359 7.0 13.0 1.24 0.00 0.00 72 1027.8
20160430134852 43 183 13.0 17.0 1.24 0.00 0.00 72 1027.7
20160430134352 42 231 11.0 17.0 1.24 0.00 0.00 71 1027.6
20160430133852 42 200 15.0 17.0 1.24 0.00 0.00 70 1027.6
20160430133353 43 225 5.0 17.0 1.24 0.00 0.00 67 1027.7
20160430132852 43 167 10.0 16.0 1.24 0.00 0.00 70 1027.6
20160430132356 42 359 11.0 17.0 1.24 0.00 0.00 67 1027.7
20160430131852 42 359 5.0 14.0 1.24 0.00 0.00 68 1027.5
20160430131352 42 255 10.0 17.0 1.24 0.00 0.00 66 1027.5
20160430130852 42 231 13.0 17.0 1.24 0.00 0.00 64 1027.5
20160430130353 42 359 7.0 17.0 1.24 0.00 0.00 64 1027.4
20160430125852 42 359 6.0 16.0 1.24 0.00 0.00 64 1027.3
20160430125353 41 222 12.0 17.0 1.24 0.00 0.00 63 1027.1
20160430124852 41 238 13.0 16.0 1.24 0.00 0.00 64 1027.1
20160430124354 40 180 11.0 15.0 1.24 0.00 0.00 66 1026.9
20160430123853 40 113 14.0 17.0 1.24 0.00 0.00 65 1026.9
20160430123354 40 134 12.0 15.0 1.24 0.00 0.00 66 1026.7
20160430122852 39 169 11.0 14.0 1.24 0.00 0.00 69 1026.7
20160430122352 39 159 9.0 12.0 1.24 0.00 0.00 70 1026.8
20160430121852 39 169 11.0 12.0 1.24 0.00 0.00 70 1026.8
20160430121352 38 160 10.0 13.0 1.24 0.00 0.00 71 1026.9
20160430120853 38 163 10.0 12.0 1.24 0.00 0.00 72 1027.0
20160430120353 38 145 9.0 12.0 1.24 0.00 0.00 70 1027.2
20160430115854 38 159 8.0 10.0 1.24 0.00 0.00 71 1027.2
20160430115439 37 143 9.0 11.0 1.24 0.00 0.00 72 1027.3
20160430115354 37 143 9.0 11.0 1.24 0.00 0.00 72 1027.3
20160430115003 37 141 8.0 12.0 1.24 0.00 0.00 71 1027.5
20160430114852 37 141 8.0 12.0 1.24 0.00 0.00 71 1027.5
20160430114505 37 135 7.0 10.0 1.24 0.00 0.00 71 1027.6
20160430114352 37 135 7.0 10.0 1.24 0.00 0.00 71 1027.6
20160430114012 36 0 0.0 0.0 1.24 0.00 0.00 71 1027.5
20160430113853 36 0 0.0 0.0 1.24 0.00 0.00 71 1027.5
20160430113506 36 0 0.0 0.0 1.24 0.00 0.00 71 1027.3
20160430113356 36 0 0.0 0.0 1.24 0.00 0.00 71 1027.3
20160430112931 36 0 0.0 0.0 1.24 0.00 0.00 72 1027.2
20160430112852 36 0 0.0 0.0 1.24 0.00 0.00 72 1027.2
20160430112354 36 0 0.0 0.0 1.24 0.00 0.00 72 1027.1
20160430111853 35 359 2.0 14.0 1.24 0.00 0.00 72 1027.0
20160430111511 35 359 1.0 9.0 1.24 0.00 0.00 72 1026.9
20160430111352 35 359 1.0 9.0 1.24 0.00 0.00 72 1026.9
20160430111056 35 0 0.0 0.0 1.24 0.00 0.00 71 1026.7
20160430110852 35 0 0.0 0.0 1.24 0.00 0.00 71 1026.7
20160430110352 36 359 2.0 13.0 1.24 0.00 0.00 70 1026.7
20160430110021 36 0 0.0 0.0 1.24 0.00 0.00 69 1026.7
20160430105853 36 0 0.0 0.0 1.24 0.00 0.00 69 1026.7
20160430105623 36 179 3.0 13.0 1.24 0.00 0.00 68 1026.6
20160430105355 36 179 3.0 13.0 1.24 0.00 0.00 68 1026.6
20160430104852 36 121 6.0 14.0 1.24 0.00 0.00 67 1026.5
20160430104526 36 122 13.0 16.0 1.24 0.00 0.00 66 1026.4
20160430104353 36 122 13.0 16.0 1.24 0.00 0.00 66 1026.4
20160430104101 37 117 3.0 13.0 1.24 0.00 0.00 66 1026.7
20160430103852 37 117 3.0 13.0 1.24 0.00 0.00 66 1026.7
20160430103636 37 359 0.0 1.0 1.24 0.00 0.00 66 1026.7
20160430103353 37 359 0.0 1.0 1.24 0.00 0.00 66 1026.7
20160430103154 37 359 0.0 3.0 1.24 0.00 0.00 64 1026.9
20160430102854 37 359 0.0 3.0 1.24 0.00 0.00 64 1026.9
20160430102627 38 359 0.0 3.0 1.24 0.00 0.00 63 1027.1
20160430102353 38 359 0.0 3.0 1.24 0.00 0.00 63 1027.1
20160430102237 38 359 1.0 13.0 1.24 0.00 0.00 62 1027.3
20160430101855 38 359 1.0 13.0 1.24 0.00 0.00 62 1027.3
20160430101352 38 359 2.0 13.0 1.24 0.00 0.00 62 1027.4
20160430101136 38 0 0.0 0.0 1.24 0.00 0.00 63 1027.4
20160430100852 38 0 0.0 0.0 1.24 0.00 0.00 63 1027.4
20160430100651 38 359 2.0 8.0 1.24 0.00 0.00 63 1027.3
20160430100353 38 359 2.0 8.0 1.24 0.00 0.00 63 1027.3
20160430100200 37 0 0.0 0.0 1.24 0.00 0.00 64 1027.2
20160430095852 37 0 0.0 0.0 1.24 0.00 0.00 64 1027.2
20160430095616 37 0 0.0 0.0 1.24 0.00 0.00 65 1027.3
20160430095353 37 0 0.0 0.0 1.24 0.00 0.00 65 1027.3
20160430095305 37 0 0.0 0.0 1.24 0.00 0.00 65 1027.3
20160430094853 37 0 0.0 0.0 1.24 0.00 0.00 65 1027.3
20160430094805 37 0 0.0 0.0 1.24 0.00 0.00 65 1027.2
20160430094352 37 0 0.0 0.0 1.24 0.00 0.00 65 1027.2
20160430094155 38 359 0.0 2.0 1.24 0.00 0.00 65 1027.2
20160430093852 38 359 0.0 2.0 1.24 0.00 0.00 65 1027.2
20160430093707 38 359 1.0 8.0 1.24 0.00 0.00 64 1027.2
20160430093352 38 359 1.0 8.0 1.24 0.00 0.00 64 1027.2
20160430093157 38 0 0.0 0.0 1.24 0.00 0.00 62 1027.1
20160430092852 38 0 0.0 0.0 1.24 0.00 0.00 62 1027.1
20160430092636 38 359 1.0 6.0 1.24 0.00 0.00 61 1026.9
20160430092352 38 359 1.0 6.0 1.24 0.00 0.00 61 1026.9
20160430092344 38 0 0.0 0.0 1.24 0.00 0.00 60 1026.8
20160430091854 38 0 0.0 0.0 1.24 0.00 0.00 60 1026.8
20160430091642 38 0 0.0 0.0 1.24 0.00 0.00 60 1026.7
20160430091353 38 0 0.0 0.0 1.24 0.00 0.00 60 1026.7
20160430090853 38 0 0.0 0.0 1.24 0.00 0.00 60 1026.9
20160430090354 38 359 1.0 10.0 1.24 0.00 0.00 60 1026.8
20160430085855 39 359 1.0 10.0 1.24 0.00 0.00 60 1026.9
20160430085646 39 359 1.0 9.0 1.24 0.00 0.00 60 1027.0
20160430085353 39 359 1.0 9.0 1.24 0.00 0.00 60 1027.0
20160430084853 39 183 4.0 9.0 1.24 0.00 0.00 60 1027.0
20160430084549 38 359 0.0 2.0 1.24 0.00 0.00 60 1027.3
20160430084355 38 359 0.0 2.0 1.24 0.00 0.00 60 1027.3
20160430084136 38 0 0.0 0.0 1.24 0.00 0.00 60 1027.3
20160430083853 38 0 0.0 0.0 1.24 0.00 0.00 60 1027.3
20160430083649 38 0 0.0 0.0 1.24 0.00 0.00 61 1027.3
20160430083353 38 0 0.0 0.0 1.24 0.00 0.00 61 1027.3
20160430083042 37 0 0.0 0.0 1.24 0.00 0.00 62 1027.1
20160430082853 37 0 0.0 0.0 1.24 0.00 0.00 62 1027.1
20160430082535 37 0 0.0 0.0 1.24 0.00 0.00 63 1026.9
20160430082353 37 0 0.0 0.0 1.24 0.00 0.00 63 1026.9
20160430082058 37 0 0.0 0.0 1.24 0.00 0.00 64 1026.8
20160430081853 37 0 0.0 0.0 1.24 0.00 0.00 64 1026.8
20160430081547 37 0 0.0 0.0 1.24 0.00 0.00 64 1026.5
20160430081353 37 0 0.0 0.0 1.24 0.00 0.00 64 1026.5
20160430081059 37 0 0.0 0.0 1.24 0.00 0.00 63 1026.4
20160430080853 37 0 0.0 0.0 1.24 0.00 0.00 63 1026.4
20160430080528 37 0 0.0 0.0 1.24 0.00 0.00 63 1026.6
20160430080353 37 0 0.0 0.0 1.24 0.00 0.00 63 1026.6
20160430080126 37 0 0.0 0.0 1.24 0.00 0.00 64 1026.6
20160430075939 37 0 0.0 0.0 1.24 0.00 0.00 64 1026.6
20160430075853 37 0 0.0 0.0 1.24 0.00 0.00 64 1026.6
20160430075627 37 0 0.0 0.0 1.24 0.00 0.00 64 1026.5
20160430075355 37 0 0.0 0.0 1.24 0.00 0.00 64 1026.5
20160430075136 37 0 0.0 0.0 1.24 0.00 0.00 66 1026.1
20160430074853 37 0 0.0 0.0 1.24 0.00 0.00 66 1026.1
20160430074637 36 0 0.0 0.0 1.24 0.00 0.00 68 1026.1
20160430074453 36 0 0.0 0.0 1.24 0.00 0.00 68 1026.1
20160430074353 36 0 0.0 0.0 1.24 0.00 0.00 68 1026.1
20160430074125 36 359 2.0 10.0 1.24 0.00 0.00 70 1026.0
20160430073853 36 359 2.0 10.0 1.24 0.00 0.00 70 1026.0
20160430073648 35 139 4.0 11.0 1.24 0.00 0.00 72 1026.1
20160430073355 35 139 4.0 11.0 1.24 0.00 0.00 72 1026.1
20160430073129 35 0 0.0 0.0 1.24 0.00 0.00 72 1026.1
20160430072853 35 0 0.0 0.0 1.24 0.00 0.00 72 1026.1
20160430072639 35 0 0.0 0.0 1.24 0.00 0.00 72 1026.4
20160430072353 35 0 0.0 0.0 1.24 0.00 0.00 72 1026.4
20160430072103 35 0 0.0 0.0 1.24 0.00 0.00 72 1026.6
20160430071853 35 0 0.0 0.0 1.24 0.00 0.00 72 1026.6
20160430071543 35 359 1.0 10.0 1.24 0.00 0.00 72 1026.7
20160430071353 35 359 1.0 10.0 1.24 0.00 0.00 72 1026.7
20160430071057 35 359 1.0 11.0 1.24 0.00 0.00 72 1026.8
20160430070853 35 359 1.0 11.0 1.24 0.00 0.00 72 1026.8
20160430070546 36 359 1.0 6.0 1.24 0.00 0.00 71 1026.9
20160430070353 36 359 1.0 6.0 1.24 0.00 0.00 71 1026.9
20160430070057 36 76 11.0 13.0 1.24 0.00 0.00 71 1026.9
20160430065853 36 76 11.0 13.0 1.24 0.00 0.00 71 1026.9
20160430065626 36 359 1.0 9.0 1.24 0.00 0.00 72 1026.7
20160430065353 36 359 1.0 9.0 1.24 0.00 0.00 72 1026.7
20160430064855 36 66 9.0 13.0 1.24 0.00 0.00 72 1026.6
20160430064539 36 103 12.0 15.0 1.24 0.00 0.00 72 1026.7
20160430064354 36 103 12.0 15.0 1.24 0.00 0.00 72 1026.7
20160430064125 37 72 12.0 15.0 1.24 0.00 0.00 72 1026.8
20160430063853 37 72 12.0 15.0 1.24 0.00 0.00 72 1026.8
20160430063614 37 65 12.0 14.0 1.24 0.00 0.00 71 1026.8
20160430063353 37 65 12.0 14.0 1.24 0.00 0.00 71 1026.8
20160430062854 37 72 11.0 13.0 1.24 0.00 0.00 70 1026.6
20160430062353 37 68 9.0 10.0 1.24 0.00 0.00 68 1026.7
20160430062107 38 66 8.0 9.0 1.24 0.00 0.00 65 1026.6
20160430061853 38 66 8.0 9.0 1.24 0.00 0.00 65 1026.6
20160430061620 38 94 7.0 8.0 1.24 0.00 0.00 64 1026.4
20160430061353 38 94 7.0 8.0 1.24 0.00 0.00 64 1026.4
20160430061133 38 94 6.0 7.0 1.24 0.00 0.00 62 1026.4
20160430060853 38 94 6.0 7.0 1.24 0.00 0.00 62 1026.4